FENGYUN 1C DEB, 35104

Orbit data source: Space-Track

FENGYUN 1C DEB, 35104 is space debris in SSO originally from a launch on Mon, 10 May 1999 UTC launched from the Taiyaun Space Center, China (TSC). Fengyun 1C debris stems from the Chinese weather satellite Fengyun-1C, which was intentionally destroyed by a Chinese anti-satellite missile in 2007. This event dramatically increased the amount of space debris, with thousands of trackable fragments posing hazards to satellites and human spaceflight. The Fengyun 1C debris cloud has become a focal point in discussions about space sustainability and the need for international regulations to prevent the creation of new debris.

Loading next visibility...
Identifier
35104, 1999-025DKG
Orbit
SSO
Country
Flag of CNCN / PRC
Related business
Manufacturer
Unknown
Mission
Spacecraft
Bus & Motor
Unknown
Mass
Unknown
Launch date (UTC)
1999-05-10 (27 years ago)
Launch vehicle
Unknown
Launch site
Taiyaun Space Center, China (TSC)
Object type
Payload
Rocket body
Debris
Shape & HBR
Unknown shape, 0.1 m
Radar Cross Section
Small (<0.1 m²)

Expand to show TLE details & history
Last TLE update: 2 days ago

TLE from 2 days ago
0 FENGYUN 1C DEB
1 35104U 99025DKG 26143.78319560  .00000482  00000-0  24247-3 0  9999
2 35104  98.5938 151.0001 0031408  35.9863 140.0033 14.20615648920677
Epoch: 2026-05-23T18:47Z
TLE epoch observation values (Epoch: 2026-05-23T18:47:48.099Z)
Latitude
3.64352°
Longitude
168.20342°
Altitude
843.152 km
Speed
7.422 km/s
True Right ascension
22h 06m 11s
True Declination
3° 37' 19"
Sunlit
Object was in daylight at epoch
Visualization orbit readout
Latitude
Unknown
Longitude
Unknown
Altitude
Unknown
Speed
Unknown
Apparent Right ascension
Unknown
Apparent Declination
Unknown
Sunlit
N/A
Visualization observer readout
Local Sidereal Time
15:38:53
Azimuth
Unknown
Elevation
Unknown
Doppler factor
Unknown
Orbital elements
Apogee altitude
843.033 km
Perigee altitude
797.814 km
Semi-major axis
7,198.561 km
Eccentricity
0.00314
Inclination
98.5938°
RAAN
151.0001°
Arg. of periapsis
35.9863°
True anomaly
140.23393°
Mean anomaly
140.0033°
Eccentric anomaly
140.11869°
Mean motion
3.55365 °/min
Orbital period
101.3 mins
BSTAR
0.00024247
Loading maneuver chart data...
Computing Atmospheric mass density...
Loading historical data...
Loading historical data...
Loading historical data...
Loading historical data...
Loading historical data...
Loading historical data...
Loading historical data...

Documentation

Showing up to 5 results
|